User: anonymous   Login
Location: Unspecified
(0.0000°N, 0.0000°E)
Time: 00:59:28
(UTC+00:00)
Language:

STARLINK-36163 - Orbit

View from above orbital plane
View from above orbital plane
View from above satellite
View from above satellite

Ground track
Ground track

The orbit is defined by the following mean orbital elements,

1 67008U          26145.57741443 +.00000000 +00000-0 -19744-3 0 00006
2 67008  70.0044 260.6434 0003164 263.2108  96.8691 14.98319718    09
Epoch (UTC): 25 May 2026 13:51:28
Eccentricity: 0.0003164
inclination: 70.0044°
perigee height: 570 km
apogee height: 574 km
right ascension of ascending node: 260.6434°
argument of perigee: 263.2108°
revolutions per day: 14.98319718
mean anomaly at epoch: 96.8691°

The dashed part of the orbit path shows where the satellite is in the earth's shadow,  

DLR